Weather History for KBPC - July, 2013

Change the Weather History Date:

Sunday, July 28, 2013

  Actual Average (KBGD) Record (KBGD)
Temperature  
Mean Temperature 80 °F 82 °F  
Max Temperature 91 °F 94 °F 105 °F (1986)
Min Temperature 68 °F 70 °F 57 °F (1994)
Degree Days  
Heating Degree Days 0 0  
Month to date heating degree days 0  
Since 1 June heating degree days 3  
Since 1 July heating degree days 0  
Cooling Degree Days 14 17  
Month to date cooling degree days 471  
Year to date cooling degree days 1026  
Since 1 June cooling degree days 829  
Growing Degree Days 30 (Base 50)    
Moisture  
Dew Point 53 °F    
Average Humidity 40    
Maximum Humidity 60    
Minimum Humidity 24    
Precipitation  
Precipitation 0.00 in 0.10 in 2.08 in (1950)
Month to date precipitation 2.21  
Year to date precipitation 12.43  
Snow  
Snow 0.00 in - T in (1950)
Month to date snowfall  
Since 1 June snowfall  
Since 1 July snowfall  
Snow Depth -    
Sea Level Pressure  
Sea Level Pressure 29.95 in    
Wind  
Wind Speed 17 mph (South)    
Max Wind Speed 24 mph    
Max Gust Speed 32 mph    
Visibility 10 miles    
Events      
T = Trace of Precipitation, MM = Missing Value Source: NWS Daily Summary

Daily Weather History Graph

Daily Weather History Graph

Search for Another Location

Airport or City:

Trip Planner

Search our weather history database for the weather conditions in past years. The results will help you decide how hot, cold, wet, or windy it might be!

Date:

Astronomy

Jul. 28, 2013 Rise Set
Actual Time 6:48 AM CDT 8:51 PM CDT
Civil Twilight 6:20 AM CDT 9:20 PM CDT
Nautical Twilight 5:45 AM CDT 9:54 PM CDT
Astronomical Twilight 5:08 AM CDT 10:32 PM CDT
Moon No Moon Rise 1:17 PM CDT (7/28)
Length of Visible Light 15h 00m
Length of Day
14h 03m
Waning Gibbous, 60% of the Moon is Illuminated
Jul 28
Waning Gibbous
Jul 29
Last Quarter
Aug 6
New
Aug 14
First Quarter
Aug 20
Full

Hourly Weather History & Observations

Time (CDT) Temp. Heat Index Dew Point Humidity Pressure Visibility Wind Dir Wind Speed Gust Speed Precip Events Conditions
12:15 AM 75.2 °F - 53.6 °F 47% 29.97 in 10.0 mi South 20.7 mph 25.3 mph N/A   Clear
12:35 AM 75.2 °F - 53.6 °F 47% 29.96 in 10.0 mi South 23.0 mph 29.9 mph N/A   Clear
12:55 AM 77.0 °F - 51.8 °F 41% 29.96 in 10.0 mi South 23.0 mph 28.8 mph N/A   Clear
1:15 AM 75.2 °F - 51.8 °F 44% 29.95 in 10.0 mi SSW 23.0 mph 31.1 mph N/A   Clear
1:35 AM 75.2 °F - 53.6 °F 47% 29.97 in 10.0 mi SSW 18.4 mph 26.5 mph N/A   Clear
1:55 AM 73.4 °F - 53.6 °F 50% 29.97 in 10.0 mi South 18.4 mph 26.5 mph N/A   Clear
2:15 AM 73.4 °F - 53.6 °F 50% 29.97 in 10.0 mi South 19.6 mph 26.5 mph N/A   Clear
2:35 AM 73.4 °F - 53.6 °F 50% 29.97 in 10.0 mi South 16.1 mph 24.2 mph N/A   Clear
2:55 AM 73.4 °F - 53.6 °F 50% 29.97 in 10.0 mi South 17.3 mph 21.9 mph N/A   Clear
3:15 AM 71.6 °F - 51.8 °F 50% 29.97 in 10.0 mi South 16.1 mph 23.0 mph N/A   Clear
3:35 AM 71.6 °F - 51.8 °F 50% 29.97 in 10.0 mi South 13.8 mph 21.9 mph N/A   Clear
3:55 AM 71.6 °F - 51.8 °F 50% 29.98 in 10.0 mi South 13.8 mph 19.6 mph N/A   Scattered Clouds
4:15 AM 71.6 °F - 51.8 °F 50% 29.98 in 10.0 mi SW 5.8 mph - N/A   Mostly Cloudy
4:35 AM 71.6 °F - 51.8 °F 50% 29.99 in 10.0 mi West 8.1 mph - N/A   Mostly Cloudy
4:55 AM 71.6 °F - 51.8 °F 50% 29.99 in 10.0 mi WSW 4.6 mph - N/A   Mostly Cloudy
5:15 AM 71.6 °F - 53.6 °F 53% 30.01 in 10.0 mi Calm Calm - N/A   Overcast
5:35 AM 69.8 °F - 53.6 °F 56% 30.00 in 10.0 mi SE 4.6 mph - N/A   Mostly Cloudy
5:55 AM 71.6 °F - 53.6 °F 53% 30.00 in 10.0 mi SSE 6.9 mph - N/A   Mostly Cloudy
6:15 AM 71.6 °F - 53.6 °F 53% 29.99 in 10.0 mi South 5.8 mph - N/A   Scattered Clouds
6:35 AM 69.8 °F - 53.6 °F 56% 29.99 in 10.0 mi SSE 6.9 mph - N/A   Clear
6:55 AM 69.8 °F - 53.6 °F 56% 30.00 in 10.0 mi Calm Calm - N/A   Clear
7:15 AM 69.8 °F - 53.6 °F 56% 29.98 in 10.0 mi SE 6.9 mph - N/A   Scattered Clouds
7:35 AM 69.8 °F - 53.6 °F 56% 29.99 in 10.0 mi East 5.8 mph - N/A   Clear
7:55 AM 69.8 °F - 53.6 °F 56% 29.99 in 10.0 mi SSE 4.6 mph - N/A   Clear
8:15 AM 68.0 °F - 53.6 °F 60% 29.99 in 10.0 mi South 8.1 mph - N/A   Clear
8:35 AM 69.8 °F - 53.6 °F 56% 29.99 in 10.0 mi Calm Calm - N/A   Clear
8:55 AM 69.8 °F - 53.6 °F 56% 29.99 in 10.0 mi SE 4.6 mph - N/A   Clear
9:15 AM 73.4 °F - 53.6 °F 50% 29.99 in 10.0 mi SSE 6.9 mph - N/A   Clear
9:35 AM 77.0 °F - 53.6 °F 44% 29.98 in 10.0 mi SSW 13.8 mph 17.3 mph N/A   Clear
9:55 AM 78.8 °F - 53.6 °F 42% 29.98 in 10.0 mi SSW 17.3 mph 21.9 mph N/A   Clear
10:15 AM 80.6 °F - 51.8 °F 37% 29.97 in 10.0 mi SSW 17.3 mph 25.3 mph N/A   Clear
10:35 AM 82.4 °F - 51.8 °F 35% 29.96 in 10.0 mi SSW 23.0 mph 28.8 mph N/A   Clear
10:55 AM 84.2 °F - 51.8 °F 33% 29.96 in 10.0 mi SSW 21.9 mph 28.8 mph N/A   Clear
11:15 AM 86.0 °F - 51.8 °F 31% 29.96 in 10.0 mi SSW 21.9 mph 28.8 mph N/A   Clear
11:35 AM 86.0 °F 84.2 °F 53.6 °F 33% 29.96 in 10.0 mi SSW 20.7 mph 28.8 mph N/A   Clear
11:55 AM 86.0 °F - 51.8 °F 31% 29.97 in 10.0 mi SSW 19.6 mph 28.8 mph N/A   Clear
12:15 PM 87.8 °F - 51.8 °F 29% 29.97 in 10.0 mi SSW 18.4 mph 25.3 mph N/A   Clear
12:35 PM 87.8 °F - 51.8 °F 29% 29.97 in 10.0 mi SSW 16.1 mph 28.8 mph N/A   Clear
12:55 PM 89.6 °F - 51.8 °F 27% 29.97 in 10.0 mi SSW 16.1 mph 23.0 mph N/A   Clear
1:15 PM 89.6 °F - 51.8 °F 27% 29.96 in 10.0 mi South 21.9 mph 27.6 mph N/A   Clear
1:35 PM 89.6 °F 87.3 °F 53.6 °F 29% 29.95 in 10.0 mi SSW 18.4 mph 26.5 mph N/A   Clear
1:55 PM 89.6 °F 87.3 °F 53.6 °F 29% 29.95 in 10.0 mi SSW 18.4 mph 26.5 mph N/A   Clear
2:15 PM 91.4 °F - 51.8 °F 26% 29.94 in 10.0 mi South 21.9 mph 27.6 mph N/A   Clear
2:35 PM 91.4 °F 89.1 °F 53.6 °F 28% 29.94 in 10.0 mi South 17.3 mph 28.8 mph N/A   Clear
2:55 PM 91.4 °F 89.1 °F 53.6 °F 28% 29.93 in 10.0 mi South 24.2 mph 31.1 mph N/A   Clear
3:15 PM 91.4 °F 89.1 °F 53.6 °F 28% 29.92 in 10.0 mi South 19.6 mph 29.9 mph N/A   Clear
3:35 PM 91.4 °F 89.1 °F 53.6 °F 28% 29.90 in 10.0 mi South 24.2 mph 29.9 mph N/A   Clear
3:55 PM 91.4 °F 89.1 °F 53.6 °F 28% 29.89 in 10.0 mi South 20.7 mph 29.9 mph N/A   Clear
4:15 PM 91.4 °F 89.1 °F 53.6 °F 28% 29.88 in 10.0 mi South 18.4 mph 28.8 mph N/A   Clear
4:35 PM 91.4 °F - 51.8 °F 26% 29.88 in 10.0 mi South 19.6 mph 31.1 mph N/A   Clear
4:55 PM 91.4 °F - 51.8 °F 26% 29.87 in 10.0 mi SSE 21.9 mph 32.2 mph N/A   Clear
5:15 PM 91.4 °F - 50.0 °F 24% 29.87 in 10.0 mi South 21.9 mph 29.9 mph N/A   Clear
5:35 PM 91.4 °F - 50.0 °F 24% 29.87 in 10.0 mi South 20.7 mph 32.2 mph N/A   Clear
5:55 PM 91.4 °F - 50.0 °F 24% 29.87 in 10.0 mi South 21.9 mph 26.5 mph N/A   Clear
6:15 PM 91.4 °F - 51.8 °F 26% 29.87 in 10.0 mi South 19.6 mph 29.9 mph N/A   Clear
6:35 PM 89.6 °F - 50.0 °F 26% 29.88 in 10.0 mi South 21.9 mph 28.8 mph N/A   Clear
6:55 PM 87.8 °F - 51.8 °F 29% 29.89 in 10.0 mi SSE 19.6 mph 26.5 mph N/A   Clear
7:15 PM 87.8 °F - 51.8 °F 29% 29.89 in 10.0 mi SSE 17.3 mph 24.2 mph N/A   Clear
7:35 PM 86.0 °F - 50.0 °F 29% 29.89 in 10.0 mi SSE 20.7 mph 25.3 mph N/A   Clear
7:55 PM 86.0 °F - 50.0 °F 29% 29.90 in 10.0 mi SSE 18.4 mph 24.2 mph N/A   Clear
8:15 PM 86.0 °F - 50.0 °F 29% 29.91 in 10.0 mi SSE 19.6 mph 26.5 mph N/A   Clear
8:35 PM 84.2 °F - 50.0 °F 30% 29.91 in 10.0 mi SSE 17.3 mph 23.0 mph N/A   Clear
8:55 PM 82.4 °F - 48.2 °F 30% 29.91 in 10.0 mi SSE 17.3 mph 26.5 mph N/A   Clear
9:15 PM 80.6 °F - 51.8 °F 37% 29.91 in 10.0 mi SE 17.3 mph 24.2 mph N/A   Clear
9:35 PM 80.6 °F - 51.8 °F 37% 29.91 in 10.0 mi SE 20.7 mph 29.9 mph N/A   Clear
9:55 PM 78.8 °F - 53.6 °F 42% 29.91 in 10.0 mi SE 21.9 mph 28.8 mph N/A   Clear
10:15 PM 78.8 °F - 53.6 °F 42% 29.92 in 10.0 mi SE 21.9 mph 31.1 mph N/A   Clear
10:35 PM 78.8 °F - 53.6 °F 42% 29.92 in 10.0 mi SSE 23.0 mph 32.2 mph N/A   Clear
10:55 PM 78.8 °F - 55.4 °F 44% 29.93 in 10.0 mi SSE 24.2 mph 29.9 mph N/A   Clear
11:15 PM 77.0 °F - 55.4 °F 47% 29.94 in 10.0 mi SSE 21.9 mph 29.9 mph N/A   Clear
11:35 PM 77.0 °F - 55.4 °F 47% 29.94 in 10.0 mi SSE 24.2 mph 31.1 mph N/A   Clear
11:55 PM 77.0 °F - 55.4 °F 47% 29.94 in 10.0 mi SSE 24.2 mph 31.1 mph N/A   Clear